Location: Asheville, NC
(35.6000°N, 82.5500°W)
Time: 08:26:12
(UTC-04:00)

Envisat - Pass Details

Date: 10 October 2017
Orbit: 764 x 766 km, 98.2° (Epoch: 19 October)

Event Time Altitude Azimuth Distance (km) Brightness Sun altitude
Exits shadow 21:07:41 37° 14° (NNE) 1,182 3.9 -26.5°
Drops below altitude 10° 21:10:51 10° 356° (N) 2,304 5.6 -27.1°
Sets 21:13:11 0° 353° (N) 3,234 6.5 -27.6°
